Precipitable_Water
0.34 0.34 0.33 0.33 0.32 0.32 0.31 0.31 0.31 0.31 0.30 0.29 0.28 0.28 0.27 0.27 0.27 0.27 0.27 0.30 0.33 0.36 0.36 0.37 0.37 0.39 0.40 0.41 0.43 0.43 0.43 0.44 0.47 0.48 0.49 0.52 0.55 0.60 0.58 0.56 0.55 0.56 0.58
0.35 0.34 0.34 0.33 0.33 0.33 0.33 0.32 0.32 0.31 0.30 0.29 0.27 0.28 0.27 0.27 0.27 0.27 0.27 0.27 0.29 0.29 0.29 0.31 0.33 0.34 0.36 0.37 0.37 0.39 0.40 0.41 0.42 0.43 0.46 0.49 0.51 0.53 0.57 0.61 0.64 0.60 0.58
0.36 0.35 0.34 0.33 0.34 0.34 0.34 0.33 0.32 0.31 0.29 0.28 0.26 0.27 0.26 0.26 0.26 0.26 0.26 0.26 0.25 0.25 0.26 0.29 0.29 0.30 0.31 0.31 0.33 0.35 0.36 0.37 0.38 0.39 0.40 0.43 0.47 0.51 0.53 0.57 0.60 0.62 0.64
0.38 0.37 0.35 0.35 0.36 0.36 0.35 0.33 0.32 0.30 0.29 0.28 0.27 0.27 0.26 0.26 0.26 0.26 0.26 0.26 0.24 0.25 0.25 0.26 0.27 0.27 0.27 0.29 0.31 0.33 0.33 0.33 0.33 0.35 0.36 0.38 0.41 0.43 0.48 0.56 0.61 0.65 0.67
0.42 0.39 0.38 0.38 0.38 0.38 0.36 0.34 0.33 0.32 0.30 0.29 0.28 0.27 0.26 0.26 0.27 0.27 0.26 0.25 0.24 0.25 0.25 0.24 0.25 0.24 0.25 0.26 0.28 0.30 0.31 0.31 0.32 0.32 0.33 0.35 0.37 0.38 0.41 0.46 0.52 0.58 0.65
0.43 0.42 0.42 0.41 0.40 0.39 0.37 0.36 0.33 0.33 0.32 0.32 0.29 0.27 0.27 0.28 0.28 0.27 0.26 0.25 0.25 0.25 0.24 0.23 0.23 0.23 0.23 0.24 0.25 0.26 0.28 0.30 0.31 0.32 0.34 0.35 0.36 0.38 0.41 0.44 0.45 0.49 0.58
0.45 0.45 0.44 0.44 0.43 0.41 0.39 0.37 0.35 0.33 0.32 0.32 0.29 0.27 0.27 0.28 0.28 0.27 0.27 0.25 0.25 0.24 0.24 0.23 0.23 0.23 0.22 0.21 0.21 0.22 0.26 0.27 0.29 0.32 0.34 0.34 0.36 0.37 0.40 0.43 0.45 0.49 0.49
0.46 0.47 0.47 0.46 0.44 0.42 0.40 0.38 0.35 0.33 0.33 0.33 0.29 0.28 0.24 0.26 0.28 0.27 0.26 0.24 0.24 0.24 0.23 0.23 0.22 0.22 0.21 0.19 0.19 0.21 0.20 0.22 0.24 0.28 0.30 0.33 0.34 0.36 0.39 0.43 0.48 0.48 0.48
0.48 0.49 0.49 0.47 0.46 0.45 0.41 0.39 0.37 0.35 0.31 0.32 0.32 0.28 0.23 0.22 0.25 0.27 0.25 0.24 0.23 0.23 0.23 0.22 0.22 0.22 0.21 0.20 0.19 0.18 0.19 0.21 0.25 0.28 0.31 0.33 0.35 0.39 0.41 0.44 0.49 0.52 0.54
0.50 0.51 0.51 0.49 0.48 0.46 0.42 0.40 0.38 0.35 0.33 0.30 0.32 0.32 0.30 0.28 0.23 0.21 0.24 0.23 0.22 0.21 0.21 0.22 0.22 0.23 0.22 0.20 0.19 0.18 0.19 0.22 0.25 0.29 0.31 0.35 0.37 0.40 0.43 0.46 0.45 0.47 0.55
0.53 0.54 0.53 0.51 0.50 0.48 0.44 0.40 0.37 0.35 0.34 0.32 0.31 0.30 0.29 0.29 0.28 0.24 0.20 0.20 0.22 0.21 0.21 0.21 0.22 0.23 0.22 0.21 0.19 0.18 0.20 0.24 0.26 0.29 0.33 0.37 0.40 0.42 0.46 0.49 0.49 0.51 0.51
0.54 0.55 0.54 0.54 0.52 0.48 0.45 0.40 0.37 0.35 0.34 0.33 0.32 0.31 0.29 0.27 0.25 0.24 0.22 0.20 0.20 0.20 0.20 0.21 0.21 0.22 0.23 0.21 0.20 0.20 0.21 0.23 0.27 0.31 0.33 0.36 0.39 0.42 0.46 0.48 0.50 0.52 0.52
0.55 0.55 0.56 0.54 0.52 0.49 0.45 0.41 0.37 0.34 0.34 0.33 0.32 0.31 0.31 0.29 0.29 0.26 0.24 0.21 0.19 0.20 0.19 0.20 0.21 0.22 0.23 0.24 0.21 0.21 0.22 0.24 0.26 0.29 0.33 0.36 0.39 0.41 0.42 0.42 0.46 0.48 0.51
0.58 0.57 0.56 0.55 0.52 0.49 0.45 0.40 0.36 0.35 0.35 0.34 0.32 0.31 0.31 0.30 0.29 0.27 0.24 0.22 0.18 0.18 0.19 0.18 0.20 0.22 0.24 0.25 0.25 0.23 0.23 0.25 0.27 0.30 0.32 0.35 0.36 0.37 0.38 0.40 0.43 0.47 0.50
0.58 0.57 0.57 0.55 0.54 0.49 0.43 0.38 0.35 0.35 0.35 0.33 0.32 0.32 0.31 0.30 0.29 0.28 0.27 0.25 0.21 0.15 0.15 0.17 0.18 0.22 0.25 0.27 0.26 0.24 0.24 0.26 0.29 0.31 0.33 0.35 0.37 0.37 0.38 0.39 0.39 0.42 0.48
0.58 0.58 0.58 0.57 0.52 0.47 0.41 0.37 0.36 0.36 0.34 0.33 0.33 0.32 0.31 0.30 0.29 0.28 0.27 0.25 0.24 0.20 0.15 0.18 0.19 0.22 0.25 0.28 0.28 0.25 0.25 0.27 0.28 0.30 0.33 0.35 0.36 0.38 0.39 0.39 0.41 0.41 0.43
0.59 0.58 0.58 0.54 0.50 0.45 0.40 0.38 0.37 0.35 0.34 0.33 0.33 0.32 0.30 0.30 0.28 0.27 0.26 0.25 0.23 0.23 0.18 0.18 0.21 0.24 0.25 0.28 0.28 0.27 0.26 0.27 0.28 0.29 0.33 0.37 0.38 0.39 0.41 0.44 0.45 0.46 0.47
0.60 0.58 0.56 0.54 0.49 0.44 0.41 0.38 0.36 0.35 0.34 0.32 0.32 0.32 0.30 0.30 0.28 0.27 0.26 0.24 0.23 0.24 0.22 0.18 0.20 0.22 0.25 0.30 0.30 0.26 0.26 0.28 0.29 0.31 0.34 0.37 0.39 0.41 0.46 0.49 0.53 0.54 0.52
0.59 0.58 0.56 0.52 0.48 0.43 0.40 0.38 0.37 0.35 0.34 0.33 0.33 0.32 0.30 0.29 0.26 0.26 0.25 0.25 0.25 0.25 0.24 0.22 0.20 0.24 0.26 0.31 0.29 0.27 0.27 0.28 0.28 0.31 0.33 0.36 0.40 0.46 0.53 0.55 0.57 0.58 0.57
0.57 0.57 0.55 0.52 0.45 0.41 0.39 0.38 0.36 0.35 0.35 0.35 0.34 0.33 0.30 0.28 0.26 0.26 0.26 0.25 0.25 0.25 0.25 0.24 0.23 0.23 0.26 0.30 0.32 0.26 0.24 0.27 0.25 0.31 0.33 0.39 0.42 0.48 0.52 0.53 0.55 0.57 0.57
0.57 0.57 0.55 0.48 0.43 0.41 0.39 0.38 0.38 0.37 0.35 0.34 0.34 0.32 0.30 0.29 0.29 0.28 0.27 0.26 0.26 0.24 0.24 0.24 0.23 0.23 0.25 0.27 0.27 0.26 0.25 0.25 0.26 0.31 0.33 0.36 0.41 0.48 0.51 0.54 0.57 0.57 0.57
0.57 0.55 0.50 0.44 0.42 0.40 0.40 0.41 0.41 0.38 0.36 0.34 0.31 0.29 0.28 0.27 0.27 0.28 0.27 0.27 0.27 0.25 0.24 0.24 0.24 0.23 0.23 0.26 0.29 0.26 0.26 0.24 0.20 0.34 0.33 0.34 0.42 0.47 0.50 0.55 0.57 0.57 0.57
0.55 0.51 0.46 0.44 0.43 0.42 0.41 0.42 0.40 0.38 0.34 0.32 0.30 0.28 0.27 0.27 0.27 0.26 0.26 0.27 0.27 0.29 0.30 0.27 0.23 0.23 0.23 0.27 0.28 0.25 0.27 0.27 0.25 0.30 0.34 0.32 0.43 0.45 0.50 0.54 0.57 0.57 0.57
0.51 0.47 0.45 0.48 0.44 0.41 0.40 0.40 0.38 0.36 0.33 0.31 0.29 0.28 0.28 0.26 0.26 0.26 0.26 0.27 0.26 0.25 0.24 0.25 0.25 0.26 0.28 0.32 0.34 0.31 0.30 0.28 0.28 0.31 0.35 0.32 0.41 0.44 0.50 0.54 0.54 0.55 0.57
0.47 0.47 0.54 0.47 0.42 0.39 0.38 0.37 0.37 0.34 0.31 0.30 0.29 0.29 0.27 0.26 0.25 0.27 0.26 0.22 0.21 0.22 0.24 0.26 0.28 0.30 0.31 0.32 0.33 0.30 0.27 0.24 0.22 0.27 0.35 0.36 0.40 0.43 0.48 0.50 0.51 0.54 0.55
0.51 0.57 0.48 0.44 0.40 0.37 0.37 0.36 0.36 0.34 0.30 0.28 0.28 0.27 0.26 0.25 0.26 0.25 0.22 0.21 0.19 0.20 0.24 0.25 0.25 0.27 0.30 0.33 0.34 0.31 0.28 0.24 0.24 0.26 0.33 0.36 0.40 0.44 0.41 0.49 0.48 0.51 0.52
Wind_Speed
12 12 12 12 14 15 16 17 18 19 20 21 22 23 23 23 23 23 24 24 25 26 28 30 31 33 35 36 38 40 42 43 45 46 48 49 50 50 51 51 51 50 50
14 14 14 14 15 16 17 18 19 20 22 22 23 24 24 24 24 24 25 25 26 28 30 31 32 35 36 38 41 43 44 46 48 50 52 53 54 55 56 56 55 55 55
15 15 15 16 17 18 19 20 21 21 22 23 24 24 24 25 25 25 25 27 28 30 32 33 36 37 40 42 44 46 48 50 51 53 55 57 59 59 60 60 60 60 60
17 17 17 17 18 19 20 20 21 22 22 24 25 25 25 26 26 26 27 29 32 33 34 36 39 41 43 45 47 49 51 52 54 56 58 60 62 63 64 64 64 64 63
18 18 18 18 19 19 20 20 21 22 23 25 26 26 26 26 27 27 30 33 34 34 37 39 42 44 45 48 50 52 53 55 57 59 61 63 64 66 68 69 69 68 67
20 19 19 20 20 20 20 22 23 24 25 27 27 28 27 28 29 29 32 35 35 37 39 42 45 47 49 51 53 54 56 58 61 62 63 65 67 69 71 72 73 74 71
21 21 21 20 20 21 22 23 24 25 26 28 28 29 29 30 29 31 34 36 37 39 41 44 47 50 52 53 55 56 59 61 62 63 64 66 68 69 72 73 75 76 77
23 22 22 21 21 22 23 24 25 27 28 29 29 30 31 31 31 35 35 36 39 40 44 47 49 52 54 55 57 59 60 61 62 63 65 66 67 69 69 70 72 75 77
24 23 22 22 22 23 24 26 27 28 29 30 30 31 32 33 37 34 36 37 40 43 46 49 51 53 55 57 58 60 60 61 62 62 61 61 60 57 57 60 63 68 71
25 24 23 23 24 24 26 27 28 29 30 31 32 33 34 36 38 39 38 40 41 45 48 50 52 54 56 58 59 60 60 59 58 57 54 49 47 47 48 50 52 57 61
26 25 24 24 25 26 27 28 29 30 31 32 33 34 36 38 40 41 43 43 46 47 48 50 53 54 57 59 60 60 57 56 53 50 45 44 43 42 43 44 45 48 53
27 26 25 26 26 27 28 29 30 31 32 33 34 36 37 39 40 42 44 47 49 48 49 50 51 54 56 59 59 58 55 51 48 45 43 41 41 40 39 39 40 43 47
28 27 26 26 27 27 29 30 31 32 33 35 36 37 39 41 42 44 46 48 48 51 49 50 51 53 56 58 59 55 52 48 45 43 41 40 40 39 38 37 36 37 41
29 27 27 27 27 28 29 31 32 33 34 36 37 38 40 41 42 44 45 48 51 49 52 52 52 53 55 57 57 54 48 44 42 41 40 39 38 38 37 35 34 33 36
28 27 26 26 27 29 30 31 32 34 35 36 38 39 41 42 43 44 46 47 48 51 53 51 52 54 56 57 55 51 44 42 41 40 39 38 38 37 36 35 35 33 32
28 27 27 27 28 29 30 31 33 35 36 37 38 40 41 42 43 44 46 46 48 50 53 54 57 57 56 55 53 48 42 41 40 40 40 39 38 37 36 35 34 34 35
28 27 27 27 28 30 31 32 34 35 36 38 39 40 41 42 43 44 45 46 48 50 54 57 57 56 55 54 50 45 41 39 40 39 38 35 33 32 33 33 33 33 35
28 27 27 28 29 30 31 33 34 35 36 38 40 40 41 42 43 44 45 47 49 51 54 58 57 56 53 52 48 43 39 38 38 36 33 31 32 32 30 30 30 33 36
27 27 27 28 29 30 32 33 34 35 37 39 39 40 41 42 43 44 46 47 49 51 53 55 56 54 51 49 46 41 37 36 34 33 32 31 31 31 31 32 33 36 38
27 27 28 29 30 31 32 34 34 35 37 38 39 39 40 42 43 45 46 48 49 51 53 53 55 53 49 46 43 39 35 34 34 32 31 30 32 32 33 34 36 39 41
27 27 28 29 30 32 32 33 34 35 36 37 38 39 40 41 43 45 46 48 50 51 52 53 53 51 46 44 42 39 35 35 35 32 30 30 32 34 34 36 40 42 40
27 27 28 29 31 32 33 34 34 35 36 36 37 38 39 41 43 45 46 48 49 51 52 53 52 49 46 44 41 37 34 33 32 29 30 34 35 35 36 38 43 43 39
27 27 28 30 31 32 32 33 33 33 35 35 37 38 39 41 43 45 46 48 49 50 51 53 53 47 45 43 41 36 32 31 33 33 34 35 35 37 39 41 44 44 40
27 27 29 30 31 31 31 31 31 33 34 35 36 38 40 42 43 45 47 48 48 51 51 51 49 46 43 41 39 34 32 33 33 33 33 34 37 38 41 42 43 33 25
27 28 29 30 30 29 29 30 31 32 33 34 36 38 39 41 43 45 47 49 50 51 51 50 47 44 42 40 36 30 27 30 31 31 32 34 38 41 43 43 40 30 25
28 29 29 28 27 27 28 29 30 31 33 34 35 37 39 40 42 45 46 48 50 52 51 48 45 40 37 35 31 26 27 28 30 31 32 36 39 41 42 43 36 25 17
Wind_Direction
260 270 282 292 300 305 307 310 311 312 313 314 315 315 314 313 312 310 308 307 306 303 302 301 299 296 294 291 289 286 284 282 280 278 276 274 272 270 267 265 262 260 258
261 270 279 289 297 302 305 308 309 310 312 313 314 314 314 313 312 311 310 309 307 306 305 303 301 299 296 294 292 289 287 285 283 280 277 275 272 269 267 265 262 260 258
262 269 278 287 293 299 303 306 309 310 311 313 314 314 314 314 312 311 310 309 308 307 305 304 303 301 299 296 294 291 289 287 285 282 279 276 273 269 267 264 262 260 258
262 269 278 284 291 297 301 305 308 310 312 314 314 314 314 313 312 310 309 310 308 307 306 306 305 303 301 299 296 294 292 290 287 284 281 277 274 270 267 264 262 260 257
263 269 277 283 289 295 300 304 308 310 312 314 314 313 313 311 311 309 309 310 309 307 307 307 306 304 303 300 299 297 294 292 288 285 282 279 276 272 268 265 262 259 256
262 270 276 281 287 292 298 303 307 309 310 313 312 312 311 310 310 307 310 310 309 308 308 308 308 306 304 303 301 299 296 294 291 287 284 281 278 274 270 266 262 258 255
262 269 275 280 285 290 296 302 305 308 311 313 311 313 311 311 309 309 310 309 309 309 308 309 308 307 306 305 303 301 299 296 293 290 288 285 281 276 272 267 262 258 254
261 267 273 278 282 289 295 301 305 307 310 313 312 311 311 311 310 310 309 309 310 309 310 310 309 308 307 306 305 304 301 299 296 294 291 288 284 280 274 268 263 258 254
260 265 271 275 281 288 294 299 303 307 309 311 312 312 312 310 312 311 311 311 311 311 311 311 310 310 309 308 308 307 304 302 300 298 295 291 287 282 276 270 264 258 254
258 264 269 274 280 287 293 298 302 305 308 309 310 310 311 310 312 311 312 311 313 313 312 312 311 311 311 310 310 309 306 305 303 301 298 294 289 285 280 274 267 260 253
258 263 268 274 280 287 293 297 301 304 306 308 309 310 311 311 310 310 312 313 313 314 314 314 312 312 312 312 312 310 308 306 304 302 299 296 292 288 284 278 271 263 255
257 261 267 273 280 287 292 296 300 303 305 307 308 309 310 311 312 311 311 312 313 315 316 315 314 313 313 314 314 312 309 306 304 301 299 296 294 291 287 283 275 265 254
256 261 267 274 281 286 292 296 299 302 304 306 307 309 310 310 310 310 311 312 313 315 316 317 316 314 314 315 316 314 310 306 303 301 299 296 293 290 288 285 280 270 257
254 260 267 273 279 286 292 296 299 302 304 305 306 308 309 310 311 311 311 313 314 315 316 317 317 316 316 317 317 314 309 305 304 302 299 297 294 291 288 284 279 275 263
254 260 266 273 280 287 292 296 299 301 303 305 306 308 309 310 311 311 312 312 313 315 316 318 318 318 316 317 317 314 308 305 305 302 300 297 294 291 287 283 278 271 268
253 260 266 274 281 288 292 295 298 301 303 305 306 308 309 310 311 312 312 313 312 313 314 317 317 317 317 317 316 313 307 305 305 302 301 297 294 290 287 283 278 271 267
252 259 266 274 282 288 292 296 298 301 303 305 307 308 309 310 311 312 313 313 313 313 313 316 317 317 316 316 315 311 307 306 306 304 302 299 297 294 289 284 280 274 269
253 259 267 276 283 289 293 296 299 301 303 305 307 308 309 311 312 313 313 313 314 314 314 316 318 318 316 316 314 310 307 307 308 305 303 300 299 297 292 288 282 279 275
253 260 269 277 284 289 293 296 299 301 303 305 307 308 310 311 312 313 314 314 315 315 315 316 318 317 315 315 313 309 306 308 309 305 302 301 300 298 293 290 285 285 280
254 262 271 279 285 290 294 296 299 301 303 305 307 309 310 312 313 314 314 315 316 317 318 318 318 317 315 315 313 309 305 307 308 305 302 301 301 300 297 293 290 290 283
255 264 272 280 286 290 294 296 299 301 304 306 307 310 312 313 314 315 316 317 318 318 319 319 320 317 315 315 313 308 304 305 306 304 302 302 304 303 300 296 295 292 285
257 266 274 281 286 290 294 296 298 301 304 307 309 311 313 314 315 316 317 317 318 319 319 320 319 317 314 313 312 306 302 304 307 305 306 303 307 306 305 303 302 295 281
259 268 275 282 287 291 293 296 298 302 305 308 310 311 314 315 317 317 318 318 319 319 319 320 318 315 313 312 311 305 299 301 304 304 305 304 308 307 310 310 309 299 281
261 270 277 283 286 290 293 296 299 303 306 309 311 313 314 316 318 318 319 321 321 321 321 320 317 314 311 311 308 301 297 299 302 303 306 304 311 311 313 315 315 306 289
263 271 278 282 285 289 292 296 301 304 307 309 312 314 316 317 319 320 321 321 322 323 323 321 318 315 312 312 308 301 297 302 304 306 309 309 313 313 316 317 315 298 287
265 272 277 281 284 289 293 298 302 306 308 310 313 315 317 318 320 322 322 323 324 325 325 323 321 317 314 314 310 301 299 302 304 307 313 312 315 318 318 319 315 298 274